Regional Weather Roundup
Issued by NWS

Home | Current Version | Previous Version | Graphics & Text | Print | Product List | Glossary On
Versions: 1 2 3 4 5 6 7 8 9 10 11 12 13 14 15 16 17 18 19 20 21 22 23 24 25 26 27 28 29 30 31 32 33 34 35 36 37 38 39 40 41 42 43 44 45 46 47 48 49 50
000
ASUS43 KBIS 280910
RWRND

NORTH DAKOTA REGIONAL WEATHER ROUNDUP
NATIONAL WEATHER SERVICE BISMARCK ND
400 AM CDT TUE JUL 28 2015

NOTE: "FAIR" INDICATES FEW OR NO CLOUDS BELOW 12,000 FEET WITH NO
SIGNIFICANT WEATHER AND/OR OBSTRUCTIONS TO VISIBILITY.


NDZ001>003-009>011-017-281000-
NORTHWEST NORTH DAKOTA

CITY           SKY/WX    TMP DP  RH WIND       PRES   REMARKS
WILLISTON      CLOUDY    62  57  83 SW29G40   29.58F
MINOT          CLOUDY    68  58  70 S13       29.51F
MINOT AFB      MOCLDY    65  63  91 SE14      29.51S
$$

NDZ018>021-031>035-040>046-281000-
SOUTHWEST NORTH DAKOTA

CITY           SKY/WX    TMP DP  RH WIND       PRES   REMARKS
BISMARCK       CLOUDY    68  60  75 SW8       29.63S
DICKINSON      MOCLDY    58  54  86 W25G33    29.69R
GARRISON         N/A     63  60  90 S6        29.58S
HETTINGER ARPT MOCLDY    57  53  86 W29G39    29.77S
$$

NDZ004>008-012>016-024-026-027-054-281000-
NORTHEAST NORTH DAKOTA

CITY           SKY/WX    TMP DP  RH WIND       PRES   REMARKS
GRAND FORKS    CLOUDY    73  71  93 SE13      29.59F
GRND FRKS AFB  CLOUDY    74  72  93 S10       29.60F
DEVILS LAKE    CLOUDY    75  68  78 SE10      29.56S
$$

NDZ022-023-025-028>030-036>039-047>053-281000-
SOUTHEAST NORTH DAKOTA

CITY           SKY/WX    TMP DP  RH WIND       PRES   REMARKS
FARGO          CLOUDY    76  70  82 SE13G23   29.62F
JAMESTOWN      CLOUDY    70  65  84 SE10      29.56F
$$




USA.gov is the U.S. government's official web portal to all federal, state and local government web resources and services.